owner,sensor,date,latitude,longitude,vertical_datum,sea_water_practical_salinity,qcFlag 
TCOON,ioos:station:TCOON:170:1,2013-01-01T00:00:00Z,27.2970,-97.4049,0.0,59.6,1111122 
TCOON,ioos:station:TCOON:170:1,2013-01-01T00:30:00Z,27.2970,-97.4049,0.0,59.7,1111122 
TCOON,ioos:station:TCOON:170:1,2013-01-01T01:00:00Z,27.2970,-97.4049,0.0,59.7,1111122 
TCOON,ioos:station:TCOON:170:1,2013-01-01T01:30:00Z,27.2970,-97.4049,0.0,59.6,1111122 
TCOON,ioos:station:TCOON:170:1,2013-01-01T02:30:00Z,27.2970,-97.4049,0.0,59.7,1111122 
TCOON,ioos:station:TCOON:170:1,2013-01-01T03:00:00Z,27.2970,-97.4049,0.0,59.8,1111122 
TCOON,ioos:station:TCOON:170:1,2013-01-01T08:30:00Z,27.2970,-97.4049,0.0,59.6,1111122 
TCOON,ioos:station:TCOON:170:1,2013-01-01T10:00:00Z,27.2970,-97.4049,0.0,59.8,1111122 
TCOON,ioos:station:TCOON:170:1,2013-01-01T10:30:00Z,27.2970,-97.4049,0.0,59.8,1111122 
TCOON,ioos:station:TCOON:170:1,2013-01-01T11:00:00Z,27.2970,-97.4049,0.0,59.7,1111122 
TCOON,ioos:station:TCOON:170:1,2013-01-01T11:30:00Z,27.2970,-97.4049,0.0,59.7,1111122 
TCOON,ioos:station:TCOON:170:1,2013-01-01T13:30:00Z,27.2970,-97.4049,0.0,59.6,1111122 
TCOON,ioos:station:TCOON:170:1,2013-01-01T14:00:00Z,27.2970,-97.4049,0.0,59.6,1111122 
TCOON,ioos:station:TCOON:170:1,2013-01-01T14:30:00Z,27.2970,-97.4049,0.0,59.6,1111122 
TCOON,ioos:station:TCOON:170:1,2013-01-01T15:00:00Z,27.2970,-97.4049,0.0,59.6,1111122 
TCOON,ioos:station:TCOON:170:1,2013-01-01T16:00:00Z,27.2970,-97.4049,0.0,59.6,1111122 
TCOON,ioos:station:TCOON:170:1,2013-01-01T16:30:00Z,27.2970,-97.4049,0.0,59.6,1111122 
TCOON,ioos:station:TCOON:170:1,2013-01-01T17:00:00Z,27.2970,-97.4049,0.0,59.6,1111122 
TCOON,ioos:station:TCOON:170:1,2013-01-01T17:30:00Z,27.2970,-97.4049,0.0,59.6,1111122 
TCOON,ioos:station:TCOON:170:1,2013-01-01T18:00:00Z,27.2970,-97.4049,0.0,59.6,1111122 
TCOON,ioos:station:TCOON:170:1,2013-01-01T19:30:00Z,27.2970,-97.4049,0.0,59.6,1111122 
TCOON,ioos:station:TCOON:170:1,2013-01-01T20:00:00Z,27.2970,-97.4049,0.0,59.5,1111122 
TCOON,ioos:station:TCOON:170:1,2013-01-01T20:30:00Z,27.2970,-97.4049,0.0,59.6,1111122 
TCOON,ioos:station:TCOON:170:1,2013-01-01T21:30:00Z,27.2970,-97.4049,0.0,59.6,1111122 
TCOON,ioos:station:TCOON:170:1,2013-01-01T22:00:00Z,27.2970,-97.4049,0.0,59.5,1111122 
TCOON,ioos:station:TCOON:170:1,2013-01-01T22:30:00Z,27.2970,-97.4049,0.0,59.5,1111122 
TCOON,ioos:station:TCOON:170:1,2013-01-02T00:30:00Z,27.2970,-97.4049,0.0,59.5,1111122 
TCOON,ioos:station:TCOON:170:1,2013-01-02T01:00:00Z,27.2970,-97.4049,0.0,59.5,1111122 
TCOON,ioos:station:TCOON:170:1,2013-01-02T01:30:00Z,27.2970,-97.4049,0.0,59.5,1111122 
TCOON,ioos:station:TCOON:170:1,2013-01-02T02:00:00Z,27.2970,-97.4049,0.0,59.4,1111122 
TCOON,ioos:station:TCOON:170:1,2013-01-02T02:30:00Z,27.2970,-97.4049,0.0,59.4,1111122 
TCOON,ioos:station:TCOON:170:1,2013-01-02T03:00:00Z,27.2970,-97.4049,0.0,59.4,1111122 
TCOON,ioos:station:TCOON:170:1,2013-01-02T03:30:00Z,27.2970,-97.4049,0.0,59.3,1111122 
TCOON,ioos:station:TCOON:170:1,2013-01-02T04:00:00Z,27.2970,-97.4049,0.0,59.2,1111122 
TCOON,ioos:station:TCOON:170:1,2013-01-02T04:30:00Z,27.2970,-97.4049,0.0,59.1,1111122 
TCOON,ioos:station:TCOON:170:1,2013-01-02T05:00:00Z,27.2970,-97.4049,0.0,59.0,1111122 
TCOON,ioos:station:TCOON:170:1,2013-01-02T05:30:00Z,27.2970,-97.4049,0.0,59.0,1111122 
TCOON,ioos:station:TCOON:170:1,2013-01-02T06:00:00Z,27.2970,-97.4049,0.0,58.9,1111122 
TCOON,ioos:station:TCOON:170:1,2013-01-02T06:30:00Z,27.2970,-97.4049,0.0,58.8,1111122 
TCOON,ioos:station:TCOON:170:1,2013-01-03T14:30:00Z,27.2970,-97.4049,0.0,54.8,1111122 
TCOON,ioos:station:TCOON:170:1,2013-01-03T15:30:00Z,27.2970,-97.4049,0.0,54.8,1111122 
TCOON,ioos:station:TCOON:170:1,2013-01-03T16:00:00Z,27.2970,-97.4049,0.0,54.8,1111122 
TCOON,ioos:station:TCOON:170:1,2013-01-03T16:30:00Z,27.2970,-97.4049,0.0,54.7,1111122 
TCOON,ioos:station:TCOON:170:1,2013-01-03T17:00:00Z,27.2970,-97.4049,0.0,54.5,1111122 
TCOON,ioos:station:TCOON:170:1,2013-01-03T18:00:00Z,27.2970,-97.4049,0.0,55.7,1111122 
TCOON,ioos:station:TCOON:170:1,2013-01-03T18:30:00Z,27.2970,-97.4049,0.0,55.7,1111122 
TCOON,ioos:station:TCOON:170:1,2013-01-03T19:00:00Z,27.2970,-97.4049,0.0,55.6,1111122 
TCOON,ioos:station:TCOON:170:1,2013-01-03T20:30:00Z,27.2970,-97.4049,0.0,55.4,1111122 
TCOON,ioos:station:TCOON:170:1,2013-01-03T21:00:00Z,27.2970,-97.4049,0.0,55.4,1111122 
TCOON,ioos:station:TCOON:170:1,2013-01-03T21:30:00Z,27.2970,-97.4049,0.0,55.3,1111122 
TCOON,ioos:station:TCOON:170:1,2013-01-03T22:00:00Z,27.2970,-97.4049,0.0,55.3,1111122 
TCOON,ioos:station:TCOON:170:1,2013-01-03T22:30:00Z,27.2970,-97.4049,0.0,54.9,1111122 
TCOON,ioos:station:TCOON:170:1,2013-01-03T23:30:00Z,27.2970,-97.4049,0.0,54.8,1111122 
TCOON,ioos:station:TCOON:170:1,2013-01-04T00:00:00Z,27.2970,-97.4049,0.0,54.7,1111122 
TCOON,ioos:station:TCOON:170:1,2013-01-04T00:30:00Z,27.2970,-97.4049,0.0,54.3,1111122 
TCOON,ioos:station:TCOON:170:1,2013-01-04T01:00:00Z,27.2970,-97.4049,0.0,53.9,1111122 
TCOON,ioos:station:TCOON:170:1,2013-01-04T01:30:00Z,27.2970,-97.4049,0.0,54.0,1111122 
TCOON,ioos:station:TCOON:170:1,2013-01-04T02:30:00Z,27.2970,-97.4049,0.0,53.6,1111122 
TCOON,ioos:station:TCOON:170:1,2013-01-04T03:00:00Z,27.2970,-97.4049,0.0,53.4,1111122 
TCOON,ioos:station:TCOON:170:1,2013-01-04T03:30:00Z,27.2970,-97.4049,0.0,53.3,1111122 
TCOON,ioos:station:TCOON:170:1,2013-01-04T04:00:00Z,27.2970,-97.4049,0.0,53.4,1111122 
TCOON,ioos:station:TCOON:170:1,2013-01-04T04:30:00Z,27.2970,-97.4049,0.0,53.9,1111122 
TCOON,ioos:station:TCOON:170:1,2013-01-04T05:00:00Z,27.2970,-97.4049,0.0,53.4,1111122 
TCOON,ioos:station:TCOON:170:1,2013-01-04T05:30:00Z,27.2970,-97.4049,0.0,53.2,1111122 
TCOON,ioos:station:TCOON:170:1,2013-01-04T06:00:00Z,27.2970,-97.4049,0.0,53.3,1111122 
TCOON,ioos:station:TCOON:170:1,2013-01-04T06:30:00Z,27.2970,-97.4049,0.0,53.5,1111122 
TCOON,ioos:station:TCOON:170:1,2013-01-04T07:00:00Z,27.2970,-97.4049,0.0,53.0,1111122 
TCOON,ioos:station:TCOON:170:1,2013-01-04T07:30:00Z,27.2970,-97.4049,0.0,52.9,1111122 
TCOON,ioos:station:TCOON:170:1,2013-01-04T08:00:00Z,27.2970,-97.4049,0.0,53.0,1111122 
TCOON,ioos:station:TCOON:170:1,2013-01-04T08:30:00Z,27.2970,-97.4049,0.0,53.1,1111122 
TCOON,ioos:station:TCOON:170:1,2013-01-04T09:00:00Z,27.2970,-97.4049,0.0,53.1,1111122 
TCOON,ioos:station:TCOON:170:1,2013-01-04T09:30:00Z,27.2970,-97.4049,0.0,53.0,1111122 
TCOON,ioos:station:TCOON:170:1,2013-01-04T10:00:00Z,27.2970,-97.4049,0.0,52.6,1111122 
TCOON,ioos:station:TCOON:170:1,2013-01-04T10:30:00Z,27.2970,-97.4049,0.0,52.5,1111122 
TCOON,ioos:station:TCOON:170:1,2013-01-04T11:00:00Z,27.2970,-97.4049,0.0,52.6,1111122 
TCOON,ioos:station:TCOON:170:1,2013-01-04T12:30:00Z,27.2970,-97.4049,0.0,52.6,1111122 
TCOON,ioos:station:TCOON:170:1,2013-01-04T13:00:00Z,27.2970,-97.4049,0.0,52.7,1111122 
TCOON,ioos:station:TCOON:170:1,2013-01-04T13:30:00Z,27.2970,-97.4049,0.0,52.7,1111122 
TCOON,ioos:station:TCOON:170:1,2013-01-04T14:00:00Z,27.2970,-97.4049,0.0,52.7,1111122 
TCOON,ioos:station:TCOON:170:1,2013-01-04T14:30:00Z,27.2970,-97.4049,0.0,52.6,1111122 
TCOON,ioos:station:TCOON:170:1,2013-01-04T15:00:00Z,27.2970,-97.4049,0.0,52.6,1111122 
TCOON,ioos:station:TCOON:170:1,2013-01-04T15:30:00Z,27.2970,-97.4049,0.0,52.6,1111122 
TCOON,ioos:station:TCOON:170:1,2013-01-04T16:30:00Z,27.2970,-97.4049,0.0,52.4,1111122 
TCOON,ioos:station:TCOON:170:1,2013-01-04T17:00:00Z,27.2970,-97.4049,0.0,52.5,1111122 
TCOON,ioos:station:TCOON:170:1,2013-01-04T17:30:00Z,27.2970,-97.4049,0.0,52.5,1111122 
TCOON,ioos:station:TCOON:170:1,2013-01-04T18:00:00Z,27.2970,-97.4049,0.0,52.3,1111122 
TCOON,ioos:station:TCOON:170:1,2013-01-04T18:30:00Z,27.2970,-97.4049,0.0,52.0,1111122 
TCOON,ioos:station:TCOON:170:1,2013-01-04T19:00:00Z,27.2970,-97.4049,0.0,51.7,1111122 
TCOON,ioos:station:TCOON:170:1,2013-01-04T19:30:00Z,27.2970,-97.4049,0.0,51.5,1111122 
TCOON,ioos:station:TCOON:170:1,2013-01-04T20:30:00Z,27.2970,-97.4049,0.0,50.9,1111122 
TCOON,ioos:station:TCOON:170:1,2013-01-04T21:00:00Z,27.2970,-97.4049,0.0,50.7,1111122 
TCOON,ioos:station:TCOON:170:1,2013-01-04T21:30:00Z,27.2970,-97.4049,0.0,50.7,1111122 
TCOON,ioos:station:TCOON:170:1,2013-01-04T22:00:00Z,27.2970,-97.4049,0.0,50.8,1111122 
TCOON,ioos:station:TCOON:170:1,2013-01-04T23:00:00Z,27.2970,-97.4049,0.0,50.5,1111122 
TCOON,ioos:station:TCOON:170:1,2013-01-04T23:30:00Z,27.2970,-97.4049,0.0,50.3,1111122 
TCOON,ioos:station:TCOON:170:1,2013-01-05T00:30:00Z,27.2970,-97.4049,0.0,50.0,1111122 
TCOON,ioos:station:TCOON:170:1,2013-01-05T01:00:00Z,27.2970,-97.4049,0.0,49.7,1111122 
TCOON,ioos:station:TCOON:170:1,2013-01-05T02:30:00Z,27.2970,-97.4049,0.0,49.3,1111122 
TCOON,ioos:station:TCOON:170:1,2013-01-05T03:30:00Z,27.2970,-97.4049,0.0,48.7,1111122 
TCOON,ioos:station:TCOON:170:1,2013-01-05T04:00:00Z,27.2970,-97.4049,0.0,48.4,1111122 
TCOON,ioos:station:TCOON:170:1,2013-01-05T04:30:00Z,27.2970,-97.4049,0.0,48.2,1111122 
TCOON,ioos:station:TCOON:170:1,2013-01-05T05:00:00Z,27.2970,-97.4049,0.0,48.1,1111122 
TCOON,ioos:station:TCOON:170:1,2013-01-05T05:30:00Z,27.2970,-97.4049,0.0,48.1,1111122 
TCOON,ioos:station:TCOON:170:1,2013-01-05T06:00:00Z,27.2970,-97.4049,0.0,48.0,1111122 
TCOON,ioos:station:TCOON:170:1,2013-01-05T06:30:00Z,27.2970,-97.4049,0.0,47.9,1111122 
TCOON,ioos:station:TCOON:170:1,2013-01-05T07:00:00Z,27.2970,-97.4049,0.0,47.8,1111122 
TCOON,ioos:station:TCOON:170:1,2013-01-05T07:30:00Z,27.2970,-97.4049,0.0,47.7,1111122 
TCOON,ioos:station:TCOON:170:1,2013-01-05T08:00:00Z,27.2970,-97.4049,0.0,47.7,1111122 
TCOON,ioos:station:TCOON:170:1,2013-01-05T08:30:00Z,27.2970,-97.4049,0.0,47.6,1111122 
TCOON,ioos:station:TCOON:170:1,2013-01-05T09:00:00Z,27.2970,-97.4049,0.0,47.7,1111122 
TCOON,ioos:station:TCOON:170:1,2013-01-05T09:30:00Z,27.2970,-97.4049,0.0,47.8,1111122 
TCOON,ioos:station:TCOON:170:1,2013-01-05T10:00:00Z,27.2970,-97.4049,0.0,47.7,1111122 
TCOON,ioos:station:TCOON:170:1,2013-01-05T10:30:00Z,27.2970,-97.4049,0.0,47.7,1111122 
TCOON,ioos:station:TCOON:170:1,2013-01-05T11:00:00Z,27.2970,-97.4049,0.0,48.1,1111122 
TCOON,ioos:station:TCOON:170:1,2013-01-05T11:30:00Z,27.2970,-97.4049,0.0,48.4,1111122 
TCOON,ioos:station:TCOON:170:1,2013-01-05T13:00:00Z,27.2970,-97.4049,0.0,48.0,1111122 
TCOON,ioos:station:TCOON:170:1,2013-01-05T13:30:00Z,27.2970,-97.4049,0.0,48.0,1111122 
TCOON,ioos:station:TCOON:170:1,2013-01-05T14:00:00Z,27.2970,-97.4049,0.0,47.9,1111122 
TCOON,ioos:station:TCOON:170:1,2013-01-05T14:30:00Z,27.2970,-97.4049,0.0,47.8,1111122 
TCOON,ioos:station:TCOON:170:1,2013-01-05T15:00:00Z,27.2970,-97.4049,0.0,47.7,1111122 
TCOON,ioos:station:TCOON:170:1,2013-01-05T15:30:00Z,27.2970,-97.4049,0.0,47.7,1111122 
TCOON,ioos:station:TCOON:170:1,2013-01-05T16:00:00Z,27.2970,-97.4049,0.0,47.6,1111122 
TCOON,ioos:station:TCOON:170:1,2013-01-05T16:30:00Z,27.2970,-97.4049,0.0,47.5,1111122 
TCOON,ioos:station:TCOON:170:1,2013-01-05T17:00:00Z,27.2970,-97.4049,0.0,47.5,1111122 
TCOON,ioos:station:TCOON:170:1,2013-01-05T17:30:00Z,27.2970,-97.4049,0.0,47.3,1111122 
TCOON,ioos:station:TCOON:170:1,2013-01-05T18:00:00Z,27.2970,-97.4049,0.0,47.3,1111122 
TCOON,ioos:station:TCOON:170:1,2013-01-05T18:30:00Z,27.2970,-97.4049,0.0,47.2,1111122 
TCOON,ioos:station:TCOON:170:1,2013-01-05T19:00:00Z,27.2970,-97.4049,0.0,47.1,1111122 
TCOON,ioos:station:TCOON:170:1,2013-01-05T19:30:00Z,27.2970,-97.4049,0.0,47.0,1111122 
TCOON,ioos:station:TCOON:170:1,2013-01-05T20:00:00Z,27.2970,-97.4049,0.0,46.8,1111122 
TCOON,ioos:station:TCOON:170:1,2013-01-05T20:30:00Z,27.2970,-97.4049,0.0,46.7,1111122 
TCOON,ioos:station:TCOON:170:1,2013-01-05T21:00:00Z,27.2970,-97.4049,0.0,46.5,1111122 
TCOON,ioos:station:TCOON:170:1,2013-01-05T21:30:00Z,27.2970,-97.4049,0.0,46.5,1111122 
TCOON,ioos:station:TCOON:170:1,2013-01-05T22:30:00Z,27.2970,-97.4049,0.0,46.4,1111122 
TCOON,ioos:station:TCOON:170:1,2013-01-05T23:30:00Z,27.2970,-97.4049,0.0,46.2,1111122 
TCOON,ioos:station:TCOON:170:1,2013-01-06T00:00:00Z,27.2970,-97.4049,0.0,46.0,1111122 
TCOON,ioos:station:TCOON:170:1,2013-01-06T00:30:00Z,27.2970,-97.4049,0.0,45.9,1111122 
TCOON,ioos:station:TCOON:170:1,2013-01-06T01:00:00Z,27.2970,-97.4049,0.0,45.8,1111122 
TCOON,ioos:station:TCOON:170:1,2013-01-06T01:30:00Z,27.2970,-97.4049,0.0,45.9,1111122 
TCOON,ioos:station:TCOON:170:1,2013-01-06T02:00:00Z,27.2970,-97.4049,0.0,45.8,1111122 
TCOON,ioos:station:TCOON:170:1,2013-01-06T02:30:00Z,27.2970,-97.4049,0.0,45.8,1111122 
TCOON,ioos:station:TCOON:170:1,2013-01-06T03:00:00Z,27.2970,-97.4049,0.0,45.8,1111122 
TCOON,ioos:station:TCOON:170:1,2013-01-06T04:00:00Z,27.2970,-97.4049,0.0,45.8,1111122 
TCOON,ioos:station:TCOON:170:1,2013-01-06T04:30:00Z,27.2970,-97.4049,0.0,45.8,1111122 
TCOON,ioos:station:TCOON:170:1,2013-01-06T05:00:00Z,27.2970,-97.4049,0.0,45.8,1111122 
TCOON,ioos:station:TCOON:170:1,2013-01-06T05:30:00Z,27.2970,-97.4049,0.0,45.8,1111122 
TCOON,ioos:station:TCOON:170:1,2013-01-06T06:00:00Z,27.2970,-97.4049,0.0,45.8,1111122 
TCOON,ioos:station:TCOON:170:1,2013-01-06T06:30:00Z,27.2970,-97.4049,0.0,45.9,1111122 
TCOON,ioos:station:TCOON:170:1,2013-01-06T07:00:00Z,27.2970,-97.4049,0.0,45.9,1111122 
TCOON,ioos:station:TCOON:170:1,2013-01-06T07:30:00Z,27.2970,-97.4049,0.0,45.9,1111122 
TCOON,ioos:station:TCOON:170:1,2013-01-06T08:00:00Z,27.2970,-97.4049,0.0,45.9,1111122 
TCOON,ioos:station:TCOON:170:1,2013-01-06T08:30:00Z,27.2970,-97.4049,0.0,45.9,1111122 
TCOON,ioos:station:TCOON:170:1,2013-01-06T09:30:00Z,27.2970,-97.4049,0.0,45.9,1111122 
TCOON,ioos:station:TCOON:170:1,2013-01-06T10:00:00Z,27.2970,-97.4049,0.0,45.9,1111122 
TCOON,ioos:station:TCOON:170:1,2013-01-06T10:30:00Z,27.2970,-97.4049,0.0,45.8,1111122 
TCOON,ioos:station:TCOON:170:1,2013-01-06T11:00:00Z,27.2970,-97.4049,0.0,45.7,1111122 
TCOON,ioos:station:TCOON:170:1,2013-01-06T11:30:00Z,27.2970,-97.4049,0.0,45.7,1111122 
TCOON,ioos:station:TCOON:170:1,2013-01-06T12:00:00Z,27.2970,-97.4049,0.0,45.7,1111122 
TCOON,ioos:station:TCOON:170:1,2013-01-06T12:30:00Z,27.2970,-97.4049,0.0,45.6,1111122 
TCOON,ioos:station:TCOON:170:1,2013-01-06T13:00:00Z,27.2970,-97.4049,0.0,45.5,1111122 
TCOON,ioos:station:TCOON:170:1,2013-01-06T13:30:00Z,27.2970,-97.4049,0.0,45.4,1111122 
TCOON,ioos:station:TCOON:170:1,2013-01-06T14:00:00Z,27.2970,-97.4049,0.0,45.4,1111122 
TCOON,ioos:station:TCOON:170:1,2013-01-06T14:30:00Z,27.2970,-97.4049,0.0,45.4,1111122 
TCOON,ioos:station:TCOON:170:1,2013-01-06T15:30:00Z,27.2970,-97.4049,0.0,45.3,1111122 
TCOON,ioos:station:TCOON:170:1,2013-01-06T16:00:00Z,27.2970,-97.4049,0.0,45.3,1111122 
TCOON,ioos:station:TCOON:170:1,2013-01-06T16:30:00Z,27.2970,-97.4049,0.0,45.3,1111122 
TCOON,ioos:station:TCOON:170:1,2013-01-06T17:00:00Z,27.2970,-97.4049,0.0,45.2,1111122 
TCOON,ioos:station:TCOON:170:1,2013-01-06T17:30:00Z,27.2970,-97.4049,0.0,45.2,1111122 
TCOON,ioos:station:TCOON:170:1,2013-01-06T18:30:00Z,27.2970,-97.4049,0.0,45.2,1111122 
TCOON,ioos:station:TCOON:170:1,2013-01-06T19:00:00Z,27.2970,-97.4049,0.0,46.7,1111122 
TCOON,ioos:station:TCOON:170:1,2013-01-06T19:30:00Z,27.2970,-97.4049,0.0,47.9,1111122 
TCOON,ioos:station:TCOON:170:1,2013-01-06T20:00:00Z,27.2970,-97.4049,0.0,48.7,1111122 
TCOON,ioos:station:TCOON:170:1,2013-01-06T20:30:00Z,27.2970,-97.4049,0.0,47.8,1111122 
TCOON,ioos:station:TCOON:170:1,2013-01-06T21:00:00Z,27.2970,-97.4049,0.0,47.7,1111122 
TCOON,ioos:station:TCOON:170:1,2013-01-06T21:30:00Z,27.2970,-97.4049,0.0,49.0,1111122 
TCOON,ioos:station:TCOON:170:1,2013-01-06T22:00:00Z,27.2970,-97.4049,0.0,49.6,1111122 
TCOON,ioos:station:TCOON:170:1,2013-01-06T22:30:00Z,27.2970,-97.4049,0.0,49.5,1111122 
TCOON,ioos:station:TCOON:170:1,2013-01-06T23:30:00Z,27.2970,-97.4049,0.0,49.2,1111122 
TCOON,ioos:station:TCOON:170:1,2013-01-07T00:30:00Z,27.2970,-97.4049,0.0,48.5,1111122 
TCOON,ioos:station:TCOON:170:1,2013-01-07T01:00:00Z,27.2970,-97.4049,0.0,48.7,1111122 
TCOON,ioos:station:TCOON:170:1,2013-01-07T01:30:00Z,27.2970,-97.4049,0.0,48.1,1111122 
TCOON,ioos:station:TCOON:170:1,2013-01-07T02:00:00Z,27.2970,-97.4049,0.0,48.1,1111122 
TCOON,ioos:station:TCOON:170:1,2013-01-07T02:30:00Z,27.2970,-97.4049,0.0,48.3,1111122 
TCOON,ioos:station:TCOON:170:1,2013-01-07T03:00:00Z,27.2970,-97.4049,0.0,48.4,1111122 
TCOON,ioos:station:TCOON:170:1,2013-01-07T03:30:00Z,27.2970,-97.4049,0.0,48.5,1111122 
TCOON,ioos:station:TCOON:170:1,2013-01-07T04:00:00Z,27.2970,-97.4049,0.0,48.6,1111122 
TCOON,ioos:station:TCOON:170:1,2013-01-07T04:30:00Z,27.2970,-97.4049,0.0,48.6,1111122 
TCOON,ioos:station:TCOON:170:1,2013-01-07T05:00:00Z,27.2970,-97.4049,0.0,48.5,1111122 
TCOON,ioos:station:TCOON:170:1,2013-01-07T05:30:00Z,27.2970,-97.4049,0.0,48.4,1111122 
TCOON,ioos:station:TCOON:170:1,2013-01-07T06:00:00Z,27.2970,-97.4049,0.0,48.4,1111122 
TCOON,ioos:station:TCOON:170:1,2013-01-07T06:30:00Z,27.2970,-97.4049,0.0,48.4,1111122 
TCOON,ioos:station:TCOON:170:1,2013-01-07T07:00:00Z,27.2970,-97.4049,0.0,48.3,1111122 
TCOON,ioos:station:TCOON:170:1,2013-01-07T07:30:00Z,27.2970,-97.4049,0.0,48.3,1111122 
TCOON,ioos:station:TCOON:170:1,2013-01-07T08:00:00Z,27.2970,-97.4049,0.0,48.5,1111122 
TCOON,ioos:station:TCOON:170:1,2013-01-07T08:30:00Z,27.2970,-97.4049,0.0,48.4,1111122 
TCOON,ioos:station:TCOON:170:1,2013-01-07T17:00:00Z,27.2970,-97.4049,0.0,49.1,1111122 
TCOON,ioos:station:TCOON:170:1,2013-01-07T17:30:00Z,27.2970,-97.4049,0.0,49.1,1111122 
TCOON,ioos:station:TCOON:170:1,2013-01-07T18:30:00Z,27.2970,-97.4049,0.0,48.9,1111122 
TCOON,ioos:station:TCOON:170:1,2013-01-08T12:30:00Z,27.2970,-97.4049,0.0,51.3,1111122 
TCOON,ioos:station:TCOON:170:1,2013-01-08T17:00:00Z,27.2970,-97.4049,0.0,52.4,1111122 
TCOON,ioos:station:TCOON:170:1,2013-01-08T18:00:00Z,27.2970,-97.4049,0.0,52.3,1111122 
TCOON,ioos:station:TCOON:170:1,2013-01-08T19:00:00Z,27.2970,-97.4049,0.0,50.8,1111122 
TCOON,ioos:station:TCOON:170:1,2013-01-08T19:30:00Z,27.2970,-97.4049,0.0,51.2,1111122 
TCOON,ioos:station:TCOON:170:1,2013-01-09T12:30:00Z,27.2970,-97.4049,0.0,55.3,1111122 
TCOON,ioos:station:TCOON:170:1,2013-01-09T13:00:00Z,27.2970,-97.4049,0.0,54.6,1111122 
TCOON,ioos:station:TCOON:170:1,2013-01-09T14:30:00Z,27.2970,-97.4049,0.0,53.3,1111122 
TCOON,ioos:station:TCOON:170:1,2013-01-09T15:00:00Z,27.2970,-97.4049,0.0,53.2,1111122 
TCOON,ioos:station:TCOON:170:1,2013-01-09T15:30:00Z,27.2970,-97.4049,0.0,53.1,1111122 
TCOON,ioos:station:TCOON:170:1,2013-01-09T16:30:00Z,27.2970,-97.4049,0.0,52.8,1111122 
TCOON,ioos:station:TCOON:170:1,2013-01-09T17:30:00Z,27.2970,-97.4049,0.0,52.0,1111122 
TCOON,ioos:station:TCOON:170:1,2013-01-09T18:30:00Z,27.2970,-97.4049,0.0,52.1,1111122 
TCOON,ioos:station:TCOON:170:1,2013-01-09T19:00:00Z,27.2970,-97.4049,0.0,52.1,1111122 
TCOON,ioos:station:TCOON:170:1,2013-01-09T20:00:00Z,27.2970,-97.4049,0.0,52.0,1111122 
TCOON,ioos:station:TCOON:170:1,2013-01-09T21:30:00Z,27.2970,-97.4049,0.0,51.8,1111122 
TCOON,ioos:station:TCOON:170:1,2013-01-09T22:00:00Z,27.2970,-97.4049,0.0,51.8,1111122 
TCOON,ioos:station:TCOON:170:1,2013-01-09T23:00:00Z,27.2970,-97.4049,0.0,51.4,1111122 
TCOON,ioos:station:TCOON:170:1,2013-01-09T23:30:00Z,27.2970,-97.4049,0.0,51.0,1111122 
TCOON,ioos:station:TCOON:170:1,2013-01-10T00:00:00Z,27.2970,-97.4049,0.0,51.1,1111122 
TCOON,ioos:station:TCOON:170:1,2013-01-10T01:00:00Z,27.2970,-97.4049,0.0,50.6,1111122 
TCOON,ioos:station:TCOON:170:1,2013-01-10T01:30:00Z,27.2970,-97.4049,0.0,50.8,1111122 
TCOON,ioos:station:TCOON:170:1,2013-01-10T02:00:00Z,27.2970,-97.4049,0.0,50.7,1111122 
TCOON,ioos:station:TCOON:170:1,2013-01-10T03:00:00Z,27.2970,-97.4049,0.0,50.7,1111122 
TCOON,ioos:station:TCOON:170:1,2013-01-10T03:30:00Z,27.2970,-97.4049,0.0,50.7,1111122 
TCOON,ioos:station:TCOON:170:1,2013-01-10T04:00:00Z,27.2970,-97.4049,0.0,50.7,1111122 
TCOON,ioos:station:TCOON:170:1,2013-01-10T04:30:00Z,27.2970,-97.4049,0.0,50.9,1111122 
TCOON,ioos:station:TCOON:170:1,2013-01-10T05:00:00Z,27.2970,-97.4049,0.0,50.9,1111122 
TCOON,ioos:station:TCOON:170:1,2013-01-10T05:30:00Z,27.2970,-97.4049,0.0,50.9,1111122 
TCOON,ioos:station:TCOON:170:1,2013-01-10T06:00:00Z,27.2970,-97.4049,0.0,50.9,1111122 
TCOON,ioos:station:TCOON:170:1,2013-01-10T06:30:00Z,27.2970,-97.4049,0.0,51.1,1111122 
TCOON,ioos:station:TCOON:170:1,2013-01-10T07:00:00Z,27.2970,-97.4049,0.0,51.3,1111122 
TCOON,ioos:station:TCOON:170:1,2013-01-10T08:00:00Z,27.2970,-97.4049,0.0,51.7,1111122 
TCOON,ioos:station:TCOON:170:1,2013-01-10T09:00:00Z,27.2970,-97.4049,0.0,51.4,1111122 
TCOON,ioos:station:TCOON:170:1,2013-01-10T09:30:00Z,27.2970,-97.4049,0.0,51.0,1111122 
TCOON,ioos:station:TCOON:170:1,2013-01-10T14:00:00Z,27.2970,-97.4049,0.0,50.7,1111122 
TCOON,ioos:station:TCOON:170:1,2013-01-10T14:30:00Z,27.2970,-97.4049,0.0,50.5,1111122 
TCOON,ioos:station:TCOON:170:1,2013-01-10T15:30:00Z,27.2970,-97.4049,0.0,50.6,1111122 
TCOON,ioos:station:TCOON:170:1,2013-01-10T16:00:00Z,27.2970,-97.4049,0.0,50.7,1111122 
TCOON,ioos:station:TCOON:170:1,2013-01-10T16:30:00Z,27.2970,-97.4049,0.0,50.8,1111122 
TCOON,ioos:station:TCOON:170:1,2013-01-10T17:00:00Z,27.2970,-97.4049,0.0,50.9,1111122 
TCOON,ioos:station:TCOON:170:1,2013-01-10T17:30:00Z,27.2970,-97.4049,0.0,50.9,1111122 
TCOON,ioos:station:TCOON:170:1,2013-01-10T18:30:00Z,27.2970,-97.4049,0.0,50.9,1111122 
TCOON,ioos:station:TCOON:170:1,2013-01-10T19:00:00Z,27.2970,-97.4049,0.0,50.8,1111122 
TCOON,ioos:station:TCOON:170:1,2013-01-10T19:30:00Z,27.2970,-97.4049,0.0,50.8,1111122 
TCOON,ioos:station:TCOON:170:1,2013-01-10T20:00:00Z,27.2970,-97.4049,0.0,51.0,1111122 
TCOON,ioos:station:TCOON:170:1,2013-01-10T20:30:00Z,27.2970,-97.4049,0.0,51.3,1111122 
TCOON,ioos:station:TCOON:170:1,2013-01-10T21:00:00Z,27.2970,-97.4049,0.0,51.2,1111122 
TCOON,ioos:station:TCOON:170:1,2013-01-10T22:00:00Z,27.2970,-97.4049,0.0,51.2,1111122 
TCOON,ioos:station:TCOON:170:1,2013-01-10T22:30:00Z,27.2970,-97.4049,0.0,51.1,1111122 
TCOON,ioos:station:TCOON:170:1,2013-01-10T23:00:00Z,27.2970,-97.4049,0.0,51.0,1111122 
TCOON,ioos:station:TCOON:170:1,2013-01-10T23:30:00Z,27.2970,-97.4049,0.0,51.0,1111122 
TCOON,ioos:station:TCOON:170:1,2013-01-11T00:00:00Z,27.2970,-97.4049,0.0,50.9,1111122 
TCOON,ioos:station:TCOON:170:1,2013-01-11T00:30:00Z,27.2970,-97.4049,0.0,50.5,1111122 
TCOON,ioos:station:TCOON:170:1,2013-01-11T01:00:00Z,27.2970,-97.4049,0.0,50.5,1111122 
TCOON,ioos:station:TCOON:170:1,2013-01-11T02:00:00Z,27.2970,-97.4049,0.0,50.1,1111122 
TCOON,ioos:station:TCOON:170:1,2013-01-11T03:00:00Z,27.2970,-97.4049,0.0,48.4,1111122 
TCOON,ioos:station:TCOON:170:1,2013-01-11T03:30:00Z,27.2970,-97.4049,0.0,47.8,1111122 
TCOON,ioos:station:TCOON:170:1,2013-01-11T04:00:00Z,27.2970,-97.4049,0.0,47.9,1111122 
TCOON,ioos:station:TCOON:170:1,2013-01-11T06:30:00Z,27.2970,-97.4049,0.0,48.3,1111122 
TCOON,ioos:station:TCOON:170:1,2013-01-11T07:00:00Z,27.2970,-97.4049,0.0,48.9,1111122 
TCOON,ioos:station:TCOON:170:1,2013-01-11T07:30:00Z,27.2970,-97.4049,0.0,49.5,1111122 
TCOON,ioos:station:TCOON:170:1,2013-01-11T17:00:00Z,27.2970,-97.4049,0.0,53.3,1111122 
TCOON,ioos:station:TCOON:170:1,2013-01-11T17:30:00Z,27.2970,-97.4049,0.0,53.3,1111122 
TCOON,ioos:station:TCOON:170:1,2013-01-11T18:00:00Z,27.2970,-97.4049,0.0,53.3,1111122 
TCOON,ioos:station:TCOON:170:1,2013-01-11T18:30:00Z,27.2970,-97.4049,0.0,53.2,1111122 
TCOON,ioos:station:TCOON:170:1,2013-01-11T19:00:00Z,27.2970,-97.4049,0.0,53.3,1111122 
TCOON,ioos:station:TCOON:170:1,2013-01-11T23:30:00Z,27.2970,-97.4049,0.0,52.8,1111122 
TCOON,ioos:station:TCOON:170:1,2013-01-12T02:00:00Z,27.2970,-97.4049,0.0,53.2,1111122 
TCOON,ioos:station:TCOON:170:1,2013-01-12T05:00:00Z,27.2970,-97.4049,0.0,53.7,1111122 
TCOON,ioos:station:TCOON:170:1,2013-01-12T06:30:00Z,27.2970,-97.4049,0.0,53.9,1111122 
TCOON,ioos:station:TCOON:170:1,2013-01-12T18:30:00Z,27.2970,-97.4049,0.0,54.0,1111122 
TCOON,ioos:station:TCOON:170:1,2013-01-12T19:30:00Z,27.2970,-97.4049,0.0,54.2,1111122 
TCOON,ioos:station:TCOON:170:1,2013-01-12T20:00:00Z,27.2970,-97.4049,0.0,54.4,1111122 
TCOON,ioos:station:TCOON:170:1,2013-01-12T21:00:00Z,27.2970,-97.4049,0.0,55.1,1111122 
TCOON,ioos:station:TCOON:170:1,2013-01-13T02:00:00Z,27.2970,-97.4049,0.0,55.1,1111122 